Sturgis, MI

10:09 AM EST on December 18, 2017 (GMT -0500)
Kirsch Municipal

Weather History for KIRS - March, 2014

Change the Weather History Date:

Monday, March 3, 2014

  Actual Average (KHAI) Record (KHAI)
Temperature  
Mean Temperature 4 °F -  
Max Temperature 12 °F 43 °F 72 °F (1974)
Min Temperature -5 °F 24 °F -13 °F (2014)
Degree Days  
Heating Degree Days 62    
Moisture  
Dew Point -7 °F    
Average Humidity 62    
Maximum Humidity 85    
Minimum Humidity 44    
Precipitation  
Precipitation 0.00 in - - ()
Sea Level Pressure  
Sea Level Pressure 30.39 in    
Wind  
Wind Speed 5 mph (NNE)    
Max Wind Speed 10 mph    
Max Gust Speed -    
Visibility 10 miles    
Events      
Averages and records for this station are not official NWS values.
T = Trace of Precipitation, MM = Missing Value Source: NWS Daily Summary

Daily Weather History Graph

Daily Weather History Graph

Search for Another Location

Airport or City:

Trip Planner

Search our weather history database for the weather conditions in past years. The results will help you decide how hot, cold, wet, or windy it might be!

Date:

Astronomy

Mar. 03, 2014 Rise Set
Actual Time 7:13 AM EST 6:34 PM EST
Civil Twilight 6:45 AM EST 7:02 PM EST
Nautical Twilight 6:13 AM EST 7:34 PM EST
Astronomical Twilight 5:41 AM EST 8:06 PM EST
Moon 8:18 AM EST (3/3) 9:40 PM EST (3/3)
Length of Visible Light 12h 16m
Length of Day
11h 21m
Waxing Crescent, 8% of the Moon is Illuminated
Mar 3
Waxing Crescent
Mar 8
First Quarter
Mar 16
Full
Mar 23
Last Quarter
Mar 30
New

Hourly Weather History & Observations

Time (EST) Temp. Windchill Dew Point Humidity Pressure Visibility Wind Dir Wind Speed Gust Speed Precip Events Conditions
12:14 AM 5.0 °F -9.1 °F -2.2 °F 72% 30.33 in 10.0 mi North 9.2 mph - N/A   Clear
12:35 AM 3.2 °F -9.1 °F -2.2 °F 78% 30.33 in 10.0 mi North 6.9 mph - N/A   Clear
12:55 AM 3.2 °F -10.3 °F -2.2 °F 78% 30.34 in 10.0 mi North 8.1 mph - N/A   Clear
1:14 AM 3.2 °F -11.3 °F -4.0 °F 72% 30.34 in 10.0 mi North 9.2 mph - N/A   Clear
1:35 AM 3.2 °F -10.3 °F -4.0 °F 72% 30.34 in 10.0 mi North 8.1 mph - N/A   Clear
1:55 AM 3.2 °F -11.3 °F -5.8 °F 66% 30.34 in 10.0 mi North 9.2 mph - N/A   Clear
2:15 AM 1.4 °F -11.3 °F -5.8 °F 72% 30.35 in 10.0 mi North 6.9 mph - N/A   Clear
2:35 AM 1.4 °F -11.3 °F -5.8 °F 72% 30.34 in 10.0 mi North 6.9 mph - N/A   Clear
2:54 AM 1.4 °F -9.9 °F -5.8 °F 72% 30.33 in 10.0 mi North 5.8 mph - N/A   Clear
3:15 AM 1.4 °F -11.3 °F -5.8 °F 72% 30.33 in 10.0 mi North 6.9 mph - N/A   Clear
3:35 AM 1.4 °F -11.3 °F -5.8 °F 72% 30.33 in 10.0 mi North 6.9 mph - N/A   Clear
3:54 AM 1.4 °F -11.3 °F -5.8 °F 72% 30.33 in 10.0 mi North 6.9 mph - N/A   Clear
4:15 AM -0.4 °F -12.0 °F -5.8 °F 78% 30.33 in 10.0 mi NNE 5.8 mph - N/A   Clear
4:35 AM -0.4 °F - -7.6 °F 72% 30.34 in 10.0 mi Calm Calm - N/A   Clear
4:54 AM -0.4 °F -8.3 °F -7.6 °F 72% 30.35 in 10.0 mi North 3.5 mph - N/A   Clear
5:15 AM -2.2 °F -10.4 °F -7.6 °F 78% 30.35 in 10.0 mi North 3.5 mph - N/A   Clear
5:35 AM -0.4 °F -10.4 °F -7.6 °F 72% 30.35 in 10.0 mi NNE 4.6 mph - N/A   Clear
5:55 AM -2.2 °F -12.5 °F -7.6 °F 78% 30.35 in 10.0 mi North 4.6 mph - N/A   Clear
6:15 AM -2.2 °F - -7.6 °F 78% 30.36 in 10.0 mi Calm Calm - N/A   Clear
6:34 AM -2.2 °F - -7.6 °F 78% 30.37 in 10.0 mi Calm Calm - N/A   Clear
6:55 AM -4.0 °F -12.4 °F -7.6 °F 85% 30.38 in 10.0 mi NNE 3.5 mph - N/A   Clear
7:15 AM -4.0 °F - -9.4 °F 78% 30.38 in 10.0 mi Calm Calm - N/A   Clear
7:34 AM -5.8 °F -14.5 °F -9.4 °F 84% 30.39 in 10.0 mi NNE 3.5 mph - N/A   Clear
7:55 AM -4.0 °F -14.6 °F -7.6 °F 85% 30.39 in 10.0 mi NE 4.6 mph - N/A   Clear
8:15 AM -2.2 °F -10.4 °F -7.6 °F 78% 30.40 in 10.0 mi NNE 3.5 mph - N/A   Clear
8:34 AM -2.2 °F -12.5 °F -7.6 °F 78% 30.41 in 10.0 mi NE 4.6 mph - N/A   Clear
8:55 AM -0.4 °F -14.7 °F -7.6 °F 72% 30.41 in 10.0 mi NE 8.1 mph - N/A   Clear
9:15 AM -0.4 °F -15.7 °F -7.6 °F 72% 30.42 in 10.0 mi ENE 9.2 mph - N/A   Clear
9:34 AM 1.4 °F -9.9 °F -7.6 °F 66% 30.42 in 10.0 mi NE 5.8 mph - N/A   Clear
9:55 AM 1.4 °F -14.5 °F -7.6 °F 66% 30.43 in 10.0 mi ENE 10.4 mph - N/A   Clear
10:15 AM 3.2 °F -7.8 °F -7.6 °F 61% 30.43 in 10.0 mi ENE 5.8 mph - N/A   Clear
10:34 AM 3.2 °F -6.2 °F -7.6 °F 61% 30.43 in 10.0 mi NE 4.6 mph - N/A   Clear
10:55 AM 5.0 °F -5.6 °F -7.6 °F 56% 30.43 in 10.0 mi NE 5.8 mph - N/A   Clear
11:15 AM 6.8 °F -3.5 °F -7.6 °F 52% 30.43 in 10.0 mi ENE 5.8 mph - N/A   Clear
11:34 AM 6.8 °F -2.0 °F -7.6 °F 52% 30.43 in 10.0 mi East 4.6 mph - N/A   Clear
11:55 AM 8.6 °F -1.3 °F -7.6 °F 48% 30.43 in 10.0 mi ENE 5.8 mph - N/A   Clear
12:15 PM 8.6 °F -1.3 °F -7.6 °F 48% 30.44 in 10.0 mi East 5.8 mph - N/A   Clear
12:34 PM 8.6 °F - -7.6 °F 48% 30.44 in 10.0 mi Calm Calm - N/A   Clear
12:55 PM 8.6 °F - -7.6 °F 48% 30.43 in 10.0 mi Calm Calm - N/A   Clear
1:14 PM 8.6 °F 2.0 °F -7.6 °F 48% 30.43 in 10.0 mi NE 3.5 mph - N/A   Clear
1:35 PM 8.6 °F - -7.6 °F 48% 30.43 in 10.0 mi Calm Calm - N/A   Clear
1:55 PM 10.4 °F - -7.6 °F 44% 30.43 in 10.0 mi Calm Calm - N/A   Clear
2:14 PM 10.4 °F - -7.6 °F 44% 30.42 in 10.0 mi Calm Calm - N/A   Clear
2:35 PM 10.4 °F - -7.6 °F 44% 30.42 in 10.0 mi Calm Calm - N/A   Clear
2:55 PM 10.4 °F - -7.6 °F 44% 30.42 in 10.0 mi Calm Calm - N/A   Clear
3:14 PM 10.4 °F - -7.6 °F 44% 30.42 in 10.0 mi Calm Calm - N/A   Clear
3:35 PM 12.2 °F - -5.8 °F 45% 30.42 in 10.0 mi Calm Calm - N/A   Clear
3:55 PM 12.2 °F 2.9 °F -4.0 °F 48% 30.42 in 10.0 mi SSW 5.8 mph - N/A   Clear
4:14 PM 12.2 °F 4.3 °F -4.0 °F 48% 30.42 in 10.0 mi WSW 4.6 mph - N/A   Clear
4:35 PM 12.2 °F 2.9 °F -4.0 °F 48% 30.42 in 10.0 mi West 5.8 mph - N/A   Clear
4:55 PM 12.2 °F 6.1 °F -5.8 °F 45% 30.42 in 10.0 mi West 3.5 mph - N/A   Clear
5:15 PM 10.4 °F 4.0 °F -5.8 °F 48% 30.42 in 10.0 mi SW 3.5 mph - N/A   Clear
5:35 PM 10.4 °F - -5.8 °F 48% 30.43 in 10.0 mi Calm Calm - N/A   Clear
5:54 PM 10.4 °F - -7.6 °F 44% 30.42 in 10.0 mi Calm Calm - N/A   Clear
6:15 PM 10.4 °F - -7.6 °F 44% 30.41 in 10.0 mi Calm Calm - N/A   Clear
6:35 PM 10.4 °F - -7.6 °F 44% 30.41 in 10.0 mi Calm Calm - N/A   Clear
6:54 PM 6.8 °F - -9.4 °F 48% 30.42 in 10.0 mi Calm Calm - N/A   Clear
7:15 PM 8.6 °F - -7.6 °F 48% 30.42 in 10.0 mi Calm Calm - N/A   Clear
7:35 PM 6.8 °F - -7.6 °F 52% 30.42 in 10.0 mi Calm Calm - N/A   Clear
7:54 PM 6.8 °F - -7.6 °F 52% 30.41 in 10.0 mi Calm Calm - N/A   Clear
8:15 PM 3.2 °F - -7.6 °F 61% 30.40 in 10.0 mi Calm Calm - N/A   Clear
8:35 PM 3.2 °F - -7.6 °F 61% 30.37 in 10.0 mi Calm Calm - N/A   Clear
8:55 PM 3.2 °F - -7.6 °F 61% 30.37 in 10.0 mi Calm Calm - N/A   Clear
9:15 PM 1.4 °F - -7.6 °F 66% 30.37 in 10.0 mi Calm Calm - N/A   Clear
9:34 PM 1.4 °F - -9.4 °F 61% 30.38 in 10.0 mi Calm Calm - N/A   Clear
9:55 PM 3.2 °F - -7.6 °F 61% 30.37 in 10.0 mi Calm Calm - N/A   Clear
10:15 PM 1.4 °F - -7.6 °F 66% 30.37 in 10.0 mi Calm Calm - N/A   Clear
10:34 PM 1.4 °F - -7.6 °F 66% 30.37 in 10.0 mi Calm Calm - N/A   Clear
10:55 PM 3.2 °F - -7.6 °F 61% 30.37 in 10.0 mi Calm Calm - N/A   Clear
11:15 PM 3.2 °F - -7.6 °F 61% 30.36 in 10.0 mi Calm Calm - N/A   Clear
11:34 PM 1.4 °F - -7.6 °F 66% 30.36 in 10.0 mi Calm Calm - N/A   Clear
11:55 PM 1.4 °F - -7.6 °F 66% 30.36 in 10.0 mi Calm Calm - N/A   Clear